"Pseudo-MPEC" for P10LmOP

Created 2019 Jan 13 16:18:26 UT using Find_Orb

Click here for an explanation of pseudo-MPECs

 
 Astrometry: 
     P10LmOP  C2018 12 24p[1X`T'8d%/[a1vVd%@i2;Ooph=;@Astrometryiv8.R.6EsoTTVF51
     P10LmOP  C2018 12 24tu#Ikskbk,)Z]u4ENw[MpQ[$a!.N,q\m_)^2tFW)l=Yca#D4MOoQF51
     P10LmOP  C2018 12 24!]J:fbL`b*@lv8KV!2Zy-Oo9@fx_C/;3UFu\,^f'*?/r@u,sunj-F51
     P10LmOP  C2019 01 05Q5\,[2hBJ.#T$BcQ8]i3QlW8hhx$wGU2]Go^i?GlMKhj^(:N;E@sF51
     P10LmOP  C2019 01 057B$t8Ljw;cDb7oP'Li0fq%ekx#Snredacted;9@,*=1%U]I,R2PnF51
     P10LmOP  C2019 01 05;l_@WPs[]gNXMYu88*Oa7(sgvwgu(m=w_qq,D,D1Z9mQQ+5'FL/tF51
     P10LmOP  C2019 01 05)R*B/!9oFE91ZoJ'F3\]3bl-0+XFt1)M;%6qs+=y(RnSZo/GQlZmF51
     P10LmOP  C2019 01 05r2aE'f[x_@oXsx0h+D]:kh`L[xn9u:=m$l.E',*VuTM=9KTS=BmCF51
     P10LmOP  C2019 01 05ih2G4@lQr\mmjt1)Fe6=b)`tNclickwEo(h7:jKZ6A;g9Q5-Bcr%F51
     P10LmOP  C2019 01 10fMN=MwFo4:_9Ov[j=tA,[=pSCYk9`D8L@DS=jH+^by38Z#/Ty62CF51
     P10LmOP  C2019 01 10E29e0l]TnB8VALnU)$0(@E,w^Qfk7S6#lU38lA,iYc0_1fi5Pq/*F51
     P10LmOP  C2019 01 10ljoFy\^l#E[6.Evse?cojLSaB5Jw\Ji7n^7mtv_Qutg]t=V96?/'F51
     P10LmOP  C2019 01 11ehpTYdlpWfF==Ak^$eV[YlThM^oh6;SX1a7uS-S?TJ6O;OT[+i:QW87
     P10LmOP  C2019 01 11f0DthU[Y+5A^.ObE$Wt28Y!,dyBCw=='J7JYs)d.Jpyd;hereXBiW87
     P10LmOP  C2019 01 11yqdP4jmpn+@(X#l@(I6[3R9/u^DR*ss)j]YY(OP1IXC%c.Nj;,]KW87
     P10LmOP  C2019 01 11,.2DAELHtV3w5W$n@2BtV]:.b5WO;y\Ifk1,9`bL]Q];E$(gx^%YW87
     P10LmOP  C2019 01 11]x``dfQPrD65KM@.iffq-e/fxTM^ywAQ^'p$3FQ16@\=`E`L114PW87
     P10LmOP  C2019 01 11u-Spfor9kQ/Id/PEtf[1#aC4us/PF*WAld7+/i:3-#g7b$C5A*20W87
     P10LmOP  C2019 01 11:s-,8yk!B_4)bAddE)a4$kG4K-T[I@Pv'64(jHgXR*ZMnxrQ9,V+W87
     P10LmOP  C2019 01 11crv:T2(Z:r]\Qifep4h@WNP6tMPMsnyo.S'6hvc%2nHRYfQ`,/h6W87
     P10LmOP  C2019 01 11.38938 10 26 00.79 -06 33 18.6    ~1BAI 20.7 GVNEOCPI52
     P10LmOP  C2019 01 11.39063 10 26 00.60 -06 33 15.9    ~1BAI 20.6 GVNEOCPI52
     P10LmOP  C2019 01 11.39188 10 26 00.42 -06 33 12.5    ~1BAI 20.5 GVNEOCPI52
     P10LmOP  C2019 01 11.39313 10 26 00.17 -06 33 09.3    ~1BAI 19.9 GVNEOCPI52
     P10LmOP |C2019 01 12K#7tek!YR8d2`l$\wdC,RY2Wjf(jC@d.e@cDL(\6:BR`i^d2Dpk0807
     P10LmOP |C2019 01 12j87R#X!^x]u8Y'S3pkQ(iN)d)+\Ou9(xKx0v7+hKfA8]fj?Vlm0O807
     P10LmOP |C2019 01 12i.lgZDexplanationAj@3Ob8o^PRJ@rZ2?jw)vkx`Z-,!gPw1J0:807
     P10LmOP  C2019 01 12.42515 10 23 32.42 -05 52 56.4    ~1CBI 20.6 GVNEOCPI52
     P10LmOP  C2019 01 12.43460 10 23 30.98 -05 52 33.5    ~1CBI 20.5 GVNEOCPI52
     P10LmOP  C2019 01 12.48330 10 23 23.52 -05 50 38.7    ~1CDI 21.1 GVNEOCPG96
     P10LmOP  C2019 01 12.48843 10 23 22.75 -05 50 26.1    ~1CDI 20.1 GVNEOCPG96
     P10LmOP  C2019 01 12.49357 10 23 22.05 -05 50 14.9    ~1CDI 20.6 GVNEOCPG96
     P10LmOP  C2019 01 12.49871 10 23 21.17 -05 50 02.5    ~1CDI 21.0 GVNEOCPG96

Station data:
(807) Cerro Tololo Observatory, La Serena  (S30.169136 W70.805900)  Chile.
   1.5-m Ritchey-Chrétien.
(F51) Pan-STARRS 1, Haleakala  (N20.707235 W156.255910)  US/Hawaii.
   Observers N. Primak, A. Schultz, S. Watters, J. Thiel, T. Goggia. Measurer
   PS1 Science Consortium. 1.8-m Ritchey-Chrétien + CCD.
(G96) Mt. Lemmon Survey  (N32.442754 W110.788720)  US/Arizona.  Observers B.
   M. Africano, E. J. Christensen, G. A. Farneth, D. C. Fuls, A. R. Gibbs, A.
   D. Grauer, H. Groeller, J. A. Johnson, R. A. Kowalski, S. M. Larson, G. J.
   Leonard, R. L. Seaman, F. C. Shelly. 1.5-m reflector + 10K CCD.
(I52) Steward Observatory, Mt. Lemmon Station  (N32.442547 W110.788920)
   US/Arizona.  Observers B. M. Africano, E. J. Christensen, G. A. Farneth,
   D. C. Fuls, A. R. Gibbs, A. D. Grauer, H. Groeller, J. A. Johnson, R. A.
   Kowalski, S. M. Larson, G. J. Leonard, R. L. Seaman, F. C. Shelly. 1.0-m
   reflector + CCD.
(W87) Cerro Tololo-LCO C  (S30.167456 W70.804680)  Chile.

Orbital elements:  P10LmOP
   Perihelion 2018 Oct 16.841286 +/- 0.00391 TT = 20:11:27 (JD 2458408.341286)
Epoch 2019 Jan 12.0 TT = JDT 2458495.5   Earth MOID: 0.1332   Ve: 0.0001
M  58.18411566 +/- 0.035            Ma: 0.0262                AutoNEOCP
n   0.66756509 +/- 0.000424         Peri.  226.42786 +/- 0.013
a   1.29660283 +/- 0.000549         Node   143.85223 +/- 0.007
e   0.4626819 +/- 0.000541          Incl.   11.98896 +/- 0.024
P   1.48/539.26d           H 21.2   G  0.15   U  7.5  
q 0.69668815 +/- 0.000409    Q 1.89651752 +/- 0.0015
From 33 observations 2018 Dec. 24-2019 Jan. 12; mean residual 0".28
Residuals in arcseconds: 
181224 F51  .16-  .16-    190110 F51  .16+  .08-    190111 I52  .06-  .11+    
181224 F51  .25+  .05-    190111 W87  .02+  .00     190111 I52  1.0-  .42+    
181224 F51  .17-  .15+    190111 W87  .09-  .03+    190112 807  .31-  .13-    
190105 F51  .07+  .36+    190111 W87  .06-  .04-    190112 807  .15-  .08+    
190105 F51  .08-  .03+    190111 W87  .03-  .10-    190112 807  .20-  .08+    
190105 F51  .02-  .01+    190111 W87  .15-  .06-    190112 I52  .23-  .32-    
190105 F51  .15+  .03+    190111 W87  .11-  .07+    190112 I52  .09-  .30+    
190105 F51  .21+  .05+    190111 W87  .05-  .04+    190112 G96  .03-  .11+    
190105 F51  .13+  .11-    190111 W87  .02+  .09-    190112 G96  .19+  .58+    
190110 F51  .23+  .12-    190111 I52  .12-  .20-    190112 G96  1.5+  .37-    
190110 F51  .09+  .05-    190111 I52  .16-  .39-    190112 G96  .06+  .13-    

Ephemerides (geocentric):
Date (UTC) HH   RA              Dec         delta   r     elong  mag " sig PA
---- -- -- --  -------------   -----------  ------ ------ -----  --- ---- ---
2019 01 13 16  10 20 30.690   -05 03 27.17  .35680 1.2520 132.3 20.9 .185  89
2019 01 13 17  10 20 24.515   -05 01 47.14  .35683 1.2523 132.4 20.9 .189  89
2019 01 13 18  10 20 18.335   -05 00 07.05  .35685 1.2526 132.5 20.9 .193  89
2019 01 13 19  10 20 12.150   -04 58 26.90  .35688 1.2529 132.6 20.9 .196  89
2019 01 13 20  10 20 05.961   -04 56 46.70  .35691 1.2532 132.7 20.9 .200  89
2019 01 13 21  10 19 59.766   -04 55 06.44  .35693 1.2535 132.7 20.9 .204  89
2019 01 13 22  10 19 53.567   -04 53 26.13  .35696 1.2538 132.8 20.9 .208  89
2019 01 13 23  10 19 47.362   -04 51 45.76  .35699 1.2541 132.9 20.9 .212  89
2019 01 14 00  10 19 41.153   -04 50 05.33  .35701 1.2544 133.0 20.9 .216  89
2019 01 14 01  10 19 34.940   -04 48 24.85  .35704 1.2547 133.0 20.9 .220  89
2019 01 14 02  10 19 28.721   -04 46 44.31  .35707 1.2550 133.1 20.9 .224  89
2019 01 14 03  10 19 22.498   -04 45 03.72  .35710 1.2553 133.2 20.9 .229  90
2019 01 14 04  10 19 16.269   -04 43 23.08  .35713 1.2556 133.3 20.9 .233  90
2019 01 14 05  10 19 10.037   -04 41 42.37  .35716 1.2559 133.4 20.9 .237  90
2019 01 14 06  10 19 03.799   -04 40 01.62  .35718 1.2562 133.4 20.9 .241  90
2019 01 14 07  10 18 57.557   -04 38 20.81  .35721 1.2565 133.5 20.9 .245  90
2019 01 14 08  10 18 51.310   -04 36 39.94  .35724 1.2568 133.6 20.9 .249  90
2019 01 14 09  10 18 45.058   -04 34 59.03  .35727 1.2571 133.7 20.9 .254  90
2019 01 14 10  10 18 38.801   -04 33 18.05  .35730 1.2574 133.7 20.9 .258  90
2019 01 14 11  10 18 32.540   -04 31 37.03  .35733 1.2577 133.8 20.9 .262  90
2019 01 14 12  10 18 26.275   -04 29 55.95  .35736 1.2580 133.9 20.9 .267  90
2019 01 14 13  10 18 20.004   -04 28 14.82  .35739 1.2583 134.0 20.9 .271  90
2019 01 14 14  10 18 13.730   -04 26 33.63  .35742 1.2586 134.0 20.9 .275  91
2019 01 14 15  10 18 07.450   -04 24 52.39  .35746 1.2589 134.1 20.9 .280  91
2019 01 14 16  10 18 01.166   -04 23 11.10  .35749 1.2592 134.2 20.9 .284  91
2019 01 14 17  10 17 54.877   -04 21 29.76  .35752 1.2595 134.3 20.9 .289  91
2019 01 14 18  10 17 48.584   -04 19 48.36  .35755 1.2598 134.4 20.9 .293  91
2019 01 14 19  10 17 42.286   -04 18 06.92  .35758 1.2601 134.4 20.9 .298  91
2019 01 14 20  10 17 35.984   -04 16 25.42  .35762 1.2604 134.5 20.9 .302  91
2019 01 14 21  10 17 29.677   -04 14 43.87  .35765 1.2607 134.6 20.9 .307  91
2019 01 14 22  10 17 23.366   -04 13 02.27  .35768 1.2610 134.7 20.9 .311  91
2019 01 14 23  10 17 17.050   -04 11 20.62  .35772 1.2613 134.7 20.9 .316  91
2019 01 15 00  10 17 10.730   -04 09 38.91  .35775 1.2616 134.8 20.9 .321  91
2019 01 15 01  10 17 04.405   -04 07 57.16  .35778 1.2618 134.9 20.9 .325  92
2019 01 15 02  10 16 58.076   -04 06 15.36  .35782 1.2621 135.0 20.9 .330  92
2019 01 15 03  10 16 51.742   -04 04 33.50  .35785 1.2624 135.1 20.9 .335  92
2019 01 15 04  10 16 45.404   -04 02 51.60  .35789 1.2627 135.1 20.9 .340  92
2019 01 15 05  10 16 39.062   -04 01 09.64  .35792 1.2630 135.2 20.9 .344  92
2019 01 15 06  10 16 32.715   -03 59 27.64  .35796 1.2633 135.3 20.9 .349  92
2019 01 15 07  10 16 26.364   -03 57 45.59  .35799 1.2636 135.4 20.9 .354  92
2019 01 15 08  10 16 20.008   -03 56 03.48  .35803 1.2639 135.4 20.9 .359  92
2019 01 15 09  10 16 13.648   -03 54 21.33  .35806 1.2642 135.5 20.9 .364  92
2019 01 15 10  10 16 07.284   -03 52 39.13  .35810 1.2645 135.6 20.9 .369  92
2019 01 15 11  10 16 00.916   -03 50 56.89  .35814 1.2648 135.7 20.9 .374  92
2019 01 15 12  10 15 54.543   -03 49 14.59  .35817 1.2651 135.8 20.9 .378  92
2019 01 15 13  10 15 48.166   -03 47 32.25  .35821 1.2654 135.8 20.9 .383  93
2019 01 15 14  10 15 41.784   -03 45 49.85  .35825 1.2657 135.9 20.8 .388  93
2019 01 15 15  10 15 35.399   -03 44 07.42  .35829 1.2660 136.0 20.8 .393  93